Location: Hermaringen
(48.5952°N, 10.2585°E)
Time: 11:30:14
(UTC+00:00)

A-11 Canister half - Visible Passes

Search period start: 16 February 2026 00:00
Search period end: 26 February 2026 00:00
Orbit: 1525 x 1682 km, 47.3° (Epoch: 15 February)

Date Brightness Start Highest point End Pass type
(mag) Time Alt. Az. Time Alt. Az. Time Alt. Az.
16 Feb 9.0 17:50:25 10° WSW 17:59:44 78° SSE 18:07:01 19° E visible
16 Feb 8.7 19:55:19 10° W 20:04:37 79° SSW 20:05:18 75° SSE visible
16 Feb 10.4 22:00:16 10° WNW 22:03:36 24° W 22:03:36 24° W visible
17 Feb 9.0 17:28:36 10° WSW 17:37:55 77° SSE 17:46:25 13° E visible
17 Feb 8.8 19:33:29 10° W 19:42:48 80° S 19:44:43 61° ESE visible
17 Feb 10.1 21:38:26 10° WNW 21:43:00 31° W 21:43:00 31° W visible
18 Feb 9.1 17:06:47 10° WSW 17:16:06 76° SSE 17:25:23 10° E visible
18 Feb 8.9 19:11:39 10° W 19:20:58 81° S 19:24:07 48° ESE visible
18 Feb 9.8 21:16:35 10° WNW 21:22:23 38° WSW 21:22:23 38° WSW visible
19 Feb 8.9 18:49:49 10° W 18:59:08 82° S 19:03:32 37° ESE visible
19 Feb 9.5 20:54:45 10° WNW 21:01:49 46° WSW 21:01:49 46° WSW visible
20 Feb 8.9 18:27:58 10° W 18:37:19 82° S 18:42:58 28° ESE visible
20 Feb 9.3 20:32:55 10° WNW 20:41:15 53° SW 20:41:15 53° SW visible
20 Feb 11.0 22:38:58 10° W 22:39:33 11° W 22:39:33 11° W visible
21 Feb 9.0 18:06:08 10° W 18:15:29 83° S 18:22:26 21° E visible
21 Feb 9.1 20:11:05 10° WNW 20:20:03 55° SSW 20:20:43 54° SSW visible
21 Feb 10.8 22:17:00 10° W 22:19:00 15° W 22:19:00 15° W visible
22 Feb 9.0 17:44:17 10° W 17:53:40 83° S 18:01:55 14° E visible
22 Feb 9.2 19:49:14 10° WNW 19:58:15 57° SSW 20:00:12 49° SSE visible
22 Feb 10.6 21:55:02 10° W 21:58:30 19° WSW 21:58:30 19° WSW visible
23 Feb 9.1 17:22:27 10° W 17:31:50 83° S 17:41:09 10° E visible
23 Feb 9.2 19:27:24 10° WNW 19:36:27 59° SSW 19:39:43 41° SSE visible
23 Feb 10.4 21:33:06 10° W 21:38:01 22° WSW 21:38:01 22° WSW visible
24 Feb 9.2 19:05:34 10° WNW 19:14:39 60° SSW 19:19:17 32° SE visible
24 Feb 10.3 21:11:09 10° W 21:17:35 25° SW 21:17:35 25° SW visible
25 Feb 9.2 18:43:44 10° WNW 18:52:51 62° SSW 18:58:53 24° SE visible
25 Feb 10.1 20:49:14 10° W 20:56:30 27° SW 20:57:12 26° SW visible
